Time,TemperatureF,DewpointF,PressureIn,WindDirection,WindDirectionDegrees,WindSpeedMPH,WindSpeedGustMPH,Humidity,HourlyPrecipIn,Conditions,Clouds,dailyrainin,SolarRadiationWatts/m^2,SoftwareType,DateUTC
2013-04-24 00:02:00,21.0,3.0,-100.00,WSW,240,5.0,9.0,44,0.00,,,0.30,0.000000,,2013-04-24 06:02:00,
2013-04-24 00:12:00,21.0,3.0,-100.00,WSW,240,5.0,9.0,44,0.00,,,0.30,0.000000,,2013-04-24 06:12:00,
2013-04-24 00:21:00,21.0,3.0,-100.00,WSW,240,5.0,9.0,44,0.00,,,0.30,0.000000,,2013-04-24 06:21:00,
2013-04-24 00:42:00,20.0,2.0,-100.00,SSE,152,2.0,8.0,45,0.00,,,0.30,0.000000,,2013-04-24 06:42:00,
2013-04-24 00:52:00,20.0,2.0,-100.00,SSE,152,2.0,8.0,45,0.00,,,0.30,0.000000,,2013-04-24 06:52:00,
2013-04-24 01:02:00,20.0,2.0,-100.00,SSE,152,2.0,8.0,45,0.00,,,0.30,0.000000,,2013-04-24 07:02:00,
2013-04-24 01:11:00,20.0,2.0,-100.00,SSE,152,2.0,8.0,45,0.00,,,0.30,0.000000,,2013-04-24 07:11:00,
2013-04-24 01:22:00,20.0,2.0,-100.00,SSE,152,2.0,8.0,45,0.00,,,0.30,0.000000,,2013-04-24 07:22:00,
2013-04-24 01:42:00,16.0,3.0,-100.00,SW,229,2.0,3.0,56,0.00,,,0.30,0.000000,,2013-04-24 07:42:00,
2013-04-24 01:52:00,16.0,3.0,-100.00,SW,229,2.0,3.0,56,0.00,,,0.30,0.000000,,2013-04-24 07:52:00,
2013-04-24 02:02:00,16.0,3.0,-100.00,SW,229,2.0,3.0,56,0.00,,,0.30,0.000000,,2013-04-24 08:02:00,
2013-04-24 02:12:00,16.0,3.0,-100.00,SW,229,2.0,3.0,56,0.00,,,0.30,0.000000,,2013-04-24 08:12:00,
2013-04-24 02:21:00,16.0,3.0,-100.00,SW,229,2.0,3.0,56,0.00,,,0.30,0.000000,,2013-04-24 08:21:00,
2013-04-24 02:42:00,14.0,3.0,-100.00,WNW,296,2.0,3.0,62,0.00,,,0.30,0.000000,,2013-04-24 08:42:00,
2013-04-24 02:52:00,14.0,3.0,-100.00,WNW,296,2.0,3.0,62,0.00,,,0.30,0.000000,,2013-04-24 08:52:00,
2013-04-24 03:02:00,14.0,3.0,-100.00,WNW,296,2.0,3.0,62,0.00,,,0.30,0.000000,,2013-04-24 09:02:00,
2013-04-24 03:11:00,14.0,3.0,-100.00,WNW,296,2.0,3.0,62,0.00,,,0.30,0.000000,,2013-04-24 09:11:00,
2013-04-24 03:21:00,14.0,3.0,-100.00,WNW,296,2.0,3.0,62,0.00,,,0.30,0.000000,,2013-04-24 09:21:00,
2013-04-24 03:42:00,13.0,4.0,-100.00,WNW,285,2.0,3.0,67,0.00,,,0.30,0.000000,,2013-04-24 09:42:00,
2013-04-24 03:53:00,13.0,4.0,-100.00,WNW,285,2.0,3.0,67,0.00,,,0.30,0.000000,,2013-04-24 09:53:00,
2013-04-24 04:02:00,13.0,4.0,-100.00,WNW,285,2.0,3.0,67,0.00,,,0.30,0.000000,,2013-04-24 10:02:00,
2013-04-24 04:12:00,13.0,4.0,-100.00,WNW,285,2.0,3.0,67,0.00,,,0.30,0.000000,,2013-04-24 10:12:00,
2013-04-24 04:22:00,13.0,4.0,-100.00,WNW,285,2.0,3.0,67,0.00,,,0.30,0.000000,,2013-04-24 10:22:00,
2013-04-24 04:42:00,13.0,4.0,-100.00,SW,219,1.0,3.0,68,0.00,,,0.30,0.000000,,2013-04-24 10:42:00,
2013-04-24 04:53:00,13.0,4.0,-100.00,SW,219,1.0,3.0,68,0.00,,,0.30,0.000000,,2013-04-24 10:53:00,
2013-04-24 05:02:00,13.0,4.0,-100.00,SW,219,1.0,3.0,68,0.00,,,0.30,0.000000,,2013-04-24 11:02:00,
2013-04-24 05:11:00,13.0,4.0,-100.00,SW,219,1.0,3.0,68,0.00,,,0.30,0.000000,,2013-04-24 11:11:00,
2013-04-24 05:21:00,13.0,4.0,-100.00,SW,219,1.0,3.0,68,0.00,,,0.30,0.000000,,2013-04-24 11:21:00,
2013-04-24 05:43:00,15.0,5.0,-100.00,WSW,247,1.0,2.0,64,0.00,,,0.30,0.000000,,2013-04-24 11:43:00,
2013-04-24 05:52:00,15.0,5.0,-100.00,WSW,247,1.0,2.0,64,0.00,,,0.30,0.000000,,2013-04-24 11:52:00,
2013-04-24 06:02:00,15.0,5.0,-100.00,WSW,247,1.0,2.0,64,0.00,,,0.30,0.000000,,2013-04-24 12:02:00,
2013-04-24 06:11:00,15.0,5.0,-100.00,WSW,247,1.0,2.0,64,0.00,,,0.30,0.000000,,2013-04-24 12:11:00,
2013-04-24 06:22:00,15.0,5.0,-100.00,WSW,247,1.0,2.0,64,0.00,,,0.30,0.000000,,2013-04-24 12:22:00,
2013-04-24 06:42:00,15.0,7.0,-100.00,West,269,1.0,2.0,71,0.00,,,0.30,1.000000,,2013-04-24 12:42:00,
2013-04-24 06:52:00,15.0,7.0,-100.00,West,269,1.0,2.0,71,0.00,,,0.30,1.000000,,2013-04-24 12:52:00,
2013-04-24 07:01:00,15.0,7.0,-100.00,West,269,1.0,2.0,71,0.00,,,0.30,1.000000,,2013-04-24 13:01:00,
2013-04-24 07:12:00,15.0,7.0,-100.00,West,269,1.0,2.0,71,0.00,,,0.30,1.000000,,2013-04-24 13:12:00,
2013-04-24 07:22:00,15.0,7.0,-100.00,West,269,1.0,2.0,71,0.00,,,0.30,1.000000,,2013-04-24 13:22:00,
2013-04-24 08:42:00,24.0,8.0,-100.00,SSE,152,2.0,5.0,50,-99.99,,,0.30,303.000000,,2013-04-24 14:42:00,
2013-04-24 08:52:00,24.0,8.0,-100.00,SSE,152,2.0,5.0,50,-99.99,,,0.30,303.000000,,2013-04-24 14:52:00,
2013-04-24 09:01:00,24.0,8.0,-100.00,SSE,152,2.0,5.0,50,-99.99,,,0.30,303.000000,,2013-04-24 15:01:00,
2013-04-24 09:11:00,24.0,8.0,-100.00,SSE,152,2.0,5.0,50,-99.99,,,0.30,303.000000,,2013-04-24 15:11:00,
2013-04-24 09:21:00,24.0,8.0,-100.00,SSE,152,2.0,5.0,50,-99.99,,,0.30,303.000000,,2013-04-24 15:21:00,
2013-04-24 09:23:00,29.0,12.0,-100.00,SSE,161,2.0,4.0,48,0.00,,,0.29,476.000000,,2013-04-24 15:23:00,
2013-04-24 09:43:00,29.0,12.0,-100.00,SSE,161,2.0,4.0,48,0.00,,,0.29,476.000000,,2013-04-24 15:43:00,
2013-04-24 09:53:00,29.0,12.0,-100.00,SSE,161,2.0,4.0,48,0.00,,,0.29,476.000000,,2013-04-24 15:53:00,
2013-04-24 10:03:00,29.0,12.0,-100.00,SSE,161,2.0,4.0,48,0.00,,,0.29,476.000000,,2013-04-24 16:03:00,
2013-04-24 10:12:00,29.0,12.0,-100.00,SSE,161,2.0,4.0,48,0.00,,,0.29,476.000000,,2013-04-24 16:12:00,
2013-04-24 10:42:00,37.0,4.0,-100.00,ESE,122,3.0,8.0,25,0.00,,,0.28,665.000000,,2013-04-24 16:42:00,
2013-04-24 10:53:00,37.0,4.0,-100.00,ESE,122,3.0,8.0,25,0.00,,,0.28,665.000000,,2013-04-24 16:53:00,
2013-04-24 11:02:00,37.0,4.0,-100.00,ESE,122,3.0,8.0,25,0.00,,,0.28,665.000000,,2013-04-24 17:02:00,
2013-04-24 11:12:00,37.0,4.0,-100.00,ESE,122,3.0,8.0,25,0.00,,,0.28,665.000000,,2013-04-24 17:12:00,
2013-04-24 11:22:00,37.0,4.0,-100.00,ESE,122,3.0,8.0,25,0.00,,,0.28,665.000000,,2013-04-24 17:22:00,
2013-04-24 11:42:00,38.0,10.0,-100.00,ESE,115,3.0,6.0,31,0.00,,,0.28,711.000000,,2013-04-24 17:42:00,
2013-04-24 11:52:00,38.0,10.0,-100.00,ESE,115,3.0,6.0,31,0.00,,,0.28,711.000000,,2013-04-24 17:52:00,
2013-04-24 12:02:00,38.0,10.0,-100.00,ESE,115,3.0,6.0,31,0.00,,,0.28,711.000000,,2013-04-24 18:02:00,
2013-04-24 12:12:00,38.0,10.0,-100.00,ESE,115,3.0,6.0,31,0.00,,,0.28,711.000000,,2013-04-24 18:12:00,
2013-04-24 12:21:00,38.0,10.0,-100.00,ESE,115,3.0,6.0,31,0.00,,,0.28,711.000000,,2013-04-24 18:21:00,
2013-04-24 12:43:00,37.0,13.0,-100.00,SE,134,4.0,7.0,36,0.01,,,0.29,779.000000,,2013-04-24 18:43:00,
2013-04-24 12:52:00,37.0,13.0,-100.00,SE,134,4.0,7.0,36,0.01,,,0.29,779.000000,,2013-04-24 18:52:00,
2013-04-24 13:02:00,37.0,13.0,-100.00,SE,134,4.0,7.0,36,0.01,,,0.29,779.000000,,2013-04-24 19:02:00,
2013-04-24 13:11:00,37.0,13.0,-100.00,SE,134,4.0,7.0,36,0.01,,,0.29,779.000000,,2013-04-24 19:11:00,
2013-04-24 13:21:00,37.0,13.0,-100.00,SE,134,4.0,7.0,36,0.01,,,0.29,779.000000,,2013-04-24 19:21:00,
2013-04-24 13:42:00,41.0,9.0,-100.00,East,92,3.0,9.0,26,0.00,,,0.29,832.000000,,2013-04-24 19:42:00,
2013-04-24 13:52:00,41.0,9.0,-100.00,East,92,3.0,9.0,26,0.00,,,0.29,832.000000,,2013-04-24 19:52:00,
2013-04-24 14:02:00,41.0,9.0,-100.00,East,92,3.0,9.0,26,0.00,,,0.29,832.000000,,2013-04-24 20:02:00,
2013-04-24 14:11:00,41.0,9.0,-100.00,East,92,3.0,9.0,26,0.00,,,0.29,832.000000,,2013-04-24 20:11:00,
2013-04-24 14:22:00,41.0,9.0,-100.00,East,92,3.0,9.0,26,0.00,,,0.29,832.000000,,2013-04-24 20:22:00,
2013-04-24 14:42:00,42.0,8.0,-100.00,NNW,333,4.0,12.0,24,0.00,,,0.22,901.000000,,2013-04-24 20:42:00,
2013-04-24 14:52:00,42.0,8.0,-100.00,NNW,333,4.0,12.0,24,0.00,,,0.22,901.000000,,2013-04-24 20:52:00,
2013-04-24 15:02:00,42.0,8.0,-100.00,NNW,333,4.0,12.0,24,0.00,,,0.22,901.000000,,2013-04-24 21:02:00,
2013-04-24 15:11:00,42.0,8.0,-100.00,NNW,333,4.0,12.0,24,0.00,,,0.22,901.000000,,2013-04-24 21:11:00,
2013-04-24 15:21:00,42.0,8.0,-100.00,NNW,333,4.0,12.0,24,0.00,,,0.22,901.000000,,2013-04-24 21:21:00,
2013-04-24 15:42:00,44.0,4.0,-100.00,West,279,4.0,11.0,19,0.00,,,0.06,920.000000,,2013-04-24 21:42:00,
2013-04-24 15:52:00,44.0,4.0,-100.00,West,279,4.0,11.0,19,0.00,,,0.06,920.000000,,2013-04-24 21:52:00,
2013-04-24 16:03:00,44.0,4.0,-100.00,West,279,4.0,11.0,19,0.00,,,0.06,920.000000,,2013-04-24 22:03:00,
2013-04-24 16:12:00,44.0,4.0,-100.00,West,279,4.0,11.0,19,0.00,,,0.06,920.000000,,2013-04-24 22:12:00,
2013-04-24 16:22:00,44.0,4.0,-100.00,West,279,4.0,11.0,19,0.00,,,0.06,920.000000,,2013-04-24 22:22:00,
2013-04-24 16:42:00,45.0,6.0,-100.00,SSW,208,4.0,12.0,20,0.00,,,0.02,792.000000,,2013-04-24 22:42:00,
2013-04-24 16:52:00,45.0,6.0,-100.00,SSW,208,4.0,12.0,20,0.00,,,0.02,792.000000,,2013-04-24 22:52:00,
2013-04-24 17:02:00,45.0,6.0,-100.00,SSW,208,4.0,12.0,20,0.00,,,0.02,792.000000,,2013-04-24 23:02:00,
2013-04-24 17:12:00,45.0,6.0,-100.00,SSW,208,4.0,12.0,20,0.00,,,0.02,792.000000,,2013-04-24 23:12:00,
2013-04-24 17:21:00,45.0,6.0,-100.00,SSW,208,4.0,12.0,20,0.00,,,0.02,792.000000,,2013-04-24 23:21:00,
2013-04-24 17:42:00,46.0,6.0,-100.00,North,353,3.0,8.0,19,0.00,,,0.01,432.000000,,2013-04-24 23:42:00,
2013-04-24 17:52:00,46.0,6.0,-100.00,North,353,3.0,8.0,19,0.00,,,0.01,432.000000,,2013-04-24 23:52:00,
2013-04-24 18:02:00,46.0,6.0,-100.00,North,353,3.0,8.0,19,0.00,,,0.01,432.000000,,2013-04-25 00:02:00,
2013-04-24 18:12:00,46.0,6.0,-100.00,North,353,3.0,8.0,19,0.00,,,0.01,432.000000,,2013-04-25 00:12:00,
2013-04-24 18:22:00,46.0,6.0,-100.00,North,353,3.0,8.0,19,0.00,,,0.01,432.000000,,2013-04-25 00:22:00,
2013-04-24 18:42:00,44.0,3.0,-100.00,SW,225,2.0,7.0,18,0.00,,,0.01,347.000000,,2013-04-25 00:42:00,
2013-04-24 18:52:00,44.0,3.0,-100.00,SW,225,2.0,7.0,18,0.00,,,0.01,347.000000,,2013-04-25 00:52:00,
2013-04-24 19:01:00,44.0,3.0,-100.00,SW,225,2.0,7.0,18,0.00,,,0.01,347.000000,,2013-04-25 01:01:00,
2013-04-24 19:11:00,44.0,3.0,-100.00,SW,225,2.0,7.0,18,0.00,,,0.01,347.000000,,2013-04-25 01:11:00,
2013-04-24 19:22:00,44.0,3.0,-100.00,SW,225,2.0,7.0,18,0.00,,,0.01,347.000000,,2013-04-25 01:22:00,
2013-04-24 19:42:00,32.0,14.0,-100.00,WNW,297,2.0,5.0,46,0.00,,,0.01,33.000000,,2013-04-25 01:42:00,
2013-04-24 19:52:00,32.0,14.0,-100.00,WNW,297,2.0,5.0,46,0.00,,,0.01,33.000000,,2013-04-25 01:52:00,
2013-04-24 20:02:00,32.0,14.0,-100.00,WNW,297,2.0,5.0,46,0.00,,,0.01,33.000000,,2013-04-25 02:02:00,
2013-04-24 20:11:00,32.0,14.0,-100.00,WNW,297,2.0,5.0,46,0.00,,,0.01,33.000000,,2013-04-25 02:11:00,
2013-04-24 20:22:00,32.0,14.0,-100.00,WNW,297,2.0,5.0,46,0.00,,,0.01,33.000000,,2013-04-25 02:22:00,
2013-04-24 21:02:00,31.0,12.0,-100.00,WNW,291,3.0,4.0,44,0.00,,,0.01,7.000000,,2013-04-25 03:02:00,
2013-04-24 21:11:00,31.0,12.0,-100.00,WNW,291,3.0,4.0,44,0.00,,,0.01,7.000000,,2013-04-25 03:11:00,
2013-04-24 21:22:00,31.0,12.0,-100.00,WNW,291,3.0,4.0,44,0.00,,,0.01,7.000000,,2013-04-25 03:22:00,
2013-04-24 21:43:00,29.0,11.0,-100.00,WNW,284,3.0,4.0,47,0.00,,,0.01,0.000000,,2013-04-25 03:43:00,
2013-04-24 21:52:00,29.0,11.0,-100.00,WNW,284,3.0,4.0,47,0.00,,,0.01,0.000000,,2013-04-25 03:52:00,
2013-04-24 22:03:00,29.0,11.0,-100.00,WNW,284,3.0,4.0,47,0.00,,,0.01,0.000000,,2013-04-25 04:03:00,
2013-04-24 22:12:00,29.0,11.0,-100.00,WNW,284,3.0,4.0,47,0.00,,,0.01,0.000000,,2013-04-25 04:12:00,
2013-04-24 22:22:00,29.0,11.0,-100.00,WNW,284,3.0,4.0,47,0.00,,,0.01,0.000000,,2013-04-25 04:22:00,
2013-04-24 22:43:00,31.0,8.0,-100.00,WSW,257,4.0,5.0,38,0.00,,,0.01,0.000000,,2013-04-25 04:43:00,
2013-04-24 22:52:00,31.0,8.0,-100.00,WSW,257,4.0,5.0,38,0.00,,,0.01,0.000000,,2013-04-25 04:52:00,
2013-04-24 23:02:00,31.0,8.0,-100.00,WSW,257,4.0,5.0,38,0.00,,,0.01,0.000000,,2013-04-25 05:02:00,
2013-04-24 23:12:00,31.0,8.0,-100.00,WSW,257,4.0,5.0,38,0.00,,,0.01,0.000000,,2013-04-25 05:12:00,
2013-04-24 23:21:00,31.0,8.0,-100.00,WSW,257,4.0,5.0,38,0.00,,,0.01,0.000000,,2013-04-25 05:21:00,
2013-04-24 23:42:00,28.0,10.0,-100.00,NW,309,2.0,5.0,47,0.00,,,0.01,0.000000,,2013-04-25 05:42:00,
2013-04-24 23:52:00,28.0,10.0,-100.00,NW,309,2.0,5.0,47,0.00,,,0.01,0.000000,,2013-04-25 05:52:00,